Location: Newark
(35.6799°N, 139.7636°E)
Time: 11:03:28
(UTC+00:00)

Explorer 7 - Pass Details

Date: 11 December 2019
Orbit: 485 x 679 km, 50.3° (Epoch: 28 January)

Event Time Altitude Azimuth Distance (km) Brightness Sun altitude
Rises 13:39:01 0° 300° (WNW) 2,986 - -72.6°
Reaches altitude 10° 13:41:37 10° 291° (WNW) 2,046 - -73.0°
Maximum altitude 13:45:45 31° 230° (SW) 1,107 - -73.5°
Drops below altitude 10° 13:49:40 10° 168° (SSE) 1,936 - -74.1°
Sets 13:52:04 0° 157° (SSE) 2,799 - -74.4°
